Home > Weather > Grieskirchen > Past weeks

Flag for Austria Weather for the Past 2 Weeks in Grieskirchen, Upper Austria, Austria

Now
57 °F

Scattered clouds.


Feels Like: 55 °F
Forecast: 44 / 52 °F
Wind: 10 mph from West

Location: Linz / Hoersching-Flughafen

Current Time: May 3, 2016 at 11:38:45 AM

Latest Report: May 3, 2016 at 10:50 AM


Visibility: N/A

Pressure: 30.04 "Hg

Humidity: 72%

Dew Point: 48 °F

Location of GrieskirchenLocation

Historic Weather in Grieskirchen — Graph

°F

Grieskirchen Temperature Yesterday

Maximum temperature yesterday: 61 °F (at 3:50 PM)
Minimum temperature yesterday: 48 °F (at 1:50 AM)
Average temperature yesterday: 53 °F

High & Low Weather Summary for the Past Weeks

 TemperatureHumidityPressure
High68 °F (Apr 22, 3:50 PM)100% (Apr 19, 3:20 AM)30.36 "Hg (Apr 19, 3:20 AM)
Low30 °F (Apr 28, 1:20 AM)21% (Apr 30, 5:20 PM)29.62 "Hg (Apr 23, 4:20 PM)
Average48 °F70%30.00 "Hg
* Reported Apr 18 9:50 AM — May 3 9:50 AM, Grieskirchen, Weather by CustomWeather, © 2016

Note: Actual official high and low records may vary slightly from our data, if they occured in-between our weather recording intervals... More about our weather records

Advertising

Grieskirchen Weather History for the Previous 24 Hours

Scroll right to see more
 ConditionsComfort  
Time TempWeatherWind HumidityBarometerVisibility
9:50 AM
Tue, May 3
54 °FPartly sunny.7 mph82%30.04 "HgN/A
9:20 AM54 °FPartly sunny.8 mph77%30.07 "HgN/A
8:50 AM52 °FPartly sunny.5 mph82%30.07 "Hg6 mi
8:20 AM50 °FFog.5 mph94%30.07 "Hg3 mi
7:50 AM48 °FFog.3 mph94%30.07 "Hg2 mi
7:20 AM46 °FFog.6 mph100%30.07 "Hg1 mi
6:50 AM46 °FSleet. Cloudy.6 mph93%30.04 "Hg1 mi
6:20 AM45 °FSleet. Overcast.3 mph100%30.04 "Hg1 mi
5:50 AM45 °FFog.6 mph100%30.04 "Hg1 mi
5:20 AM46 °FFog.5 mph93%30.04 "Hg2 mi
4:50 AM45 °FFog.5 mph100%30.07 "Hg2 mi
4:20 AM46 °FFog.5 mph100%30.07 "Hg2 mi
3:20 AM46 °FFog.7 mph100%30.07 "Hg2 mi
2:50 AM48 °FFog.3 mph94%30.07 "Hg4 mi
1:50 AM50 °FFog.5 mph94%30.07 "Hg3 mi
1:20 AM50 °FPartly cloudy.3 mph94%30.07 "Hg4 mi
12:50 AM50 °FPartly cloudy.5 mph94%30.07 "Hg4 mi
12:20 AM50 °FSprinkles. Partly cloudy.6 mph94%30.07 "HgN/A
11:50 PM
Mon, May 2
52 °FRain showers. Passing clouds.7 mph88%30.09 "HgN/A
11:20 PM52 °FLots of rain. Passing clouds.8 mph88%30.07 "Hg5 mi
10:50 PM52 °FRain showers. Partly cloudy.12 mph88%30.07 "Hg6 mi
10:20 PM52 °FSprinkles. Passing clouds.6 mph88%30.09 "Hg6 mi
9:50 PM52 °FLight rain. Passing clouds.6 mph94%30.09 "Hg5 mi
9:20 PM52 °FOvercast.2 mph94%30.09 "Hg4 mi
8:50 PM52 °FPartly sunny.5 mph94%30.09 "Hg4 mi
8:20 PM52 °FFog.3 mph94%30.09 "Hg3 mi
7:50 PM52 °FPartly sunny.9 mph94%30.07 "Hg4 mi
7:20 PM52 °FPartly sunny.5 mph94%30.07 "Hg5 mi
6:50 PM52 °FSprinkles. Partly sunny.10 mph94%30.07 "Hg6 mi
6:20 PM52 °FSprinkles. Broken clouds.9 mph94%30.07 "Hg4 mi
5:50 PM52 °FSprinkles. Broken clouds.9 mph94%30.07 "Hg4 mi
5:20 PM57 °FThunderstorms. Broken clouds.13 mph77%30.07 "Hg4 mi
4:50 PM59 °FThundershowers. Broken clouds.13 mph68%30.04 "HgN/A
4:20 PM61 °FScattered clouds.13 mph68%30.07 "HgN/A
3:50 PM61 °FScattered clouds.13 mph68%30.07 "HgN/A
3:20 PM59 °FScattered clouds.12 mph72%30.07 "HgN/A
2:50 PM59 °FScattered clouds.12 mph68%30.09 "HgN/A
2:20 PM57 °FScattered clouds.10 mph72%30.09 "HgN/A
1:50 PM57 °FPartly sunny.9 mph72%30.09 "HgN/A
1:20 PM57 °FBroken clouds.8 mph72%30.12 "HgN/A
12:50 PM55 °FBroken clouds.8 mph72%30.12 "HgN/A
12:20 PM55 °FBroken clouds.7 mph67%30.12 "HgN/A
11:50 AM54 °FPartly sunny.7 mph77%30.12 "HgN/A
11:20 AM54 °FPartly sunny.6 mph72%30.12 "HgN/A
Weather by CustomWeather, © 2016

See weather overviewHow to use our weather pages